Montpelier, VT

3:36 AM EST on December 15, 2019 (GMT -0500)
Knapp State

Weather History for KMPV - November, 2019

Change the Weather History Date:

Saturday, November 16, 2019

  Actual Average Record
Temperature  
Mean Temperature 12 °F 35 °F  
Max Temperature 21 °F 44 °F 66 °F (1956)
Min Temperature 4 °F 27 °F 4 °F (1967)
Degree Days  
Heating Degree Days 52 30  
Month to date heating degree days 569 432  
Since 1 July heating degree days 1416 1388  
Cooling Degree Days 0 0  
Month to date cooling degree days 0 0  
Year to date cooling degree days 220 264  
Moisture  
Dew Point 0 °F    
Average Humidity 59    
Maximum Humidity 76    
Minimum Humidity 39    
Precipitation  
Precipitation 0.00 in 0.10 in 0.79 in (2005)
Month to date precipitation 1.15 1.70  
Year to date precipitation 45.45 33.06  
Sea Level Pressure  
Sea Level Pressure 30.59 in    
Wind  
Wind Speed 4 mph ()    
Max Wind Speed 21 mph    
Max Gust Speed 29 mph    
Visibility 10.0 miles    
Events      
T = Trace of Precipitation, MM = Missing Value Source: Averaged Metar Reports

Daily Weather History Graph

Daily Weather History Graph

Search for Another Location

Airport or City:

Astronomy

Nov. 16, 2019 Rise Set
Actual Time 6:46 AM EST 4:22 PM EST
Civil Twilight 6:15 AM EST 4:54 PM EST
Nautical Twilight 5:40 AM EST 5:29 PM EST
Astronomical Twilight 5:06 AM EST 6:03 PM EST
Moon 7:48 PM EST (11/16) 10:42 AM EST (11/16)
Length of Visible Light 10h 38m
Length of Day
9h 36m
Waning Gibbous, 82% of the Moon is Illuminated
Nov 16
Waning Gibbous
Nov 19
Last Quarter
Nov 26
New
Dec 4
First Quarter
Dec 12
Full

Hourly Weather History & Observations

Time (EST) Temp. Windchill Dew Point Humidity Pressure Visibility Wind Dir Wind Speed Gust Speed Precip Events Conditions
1:51 AM 16.0 °F 2.3 °F 1.9 °F 54% 30.44 in 10.0 mi NNW 12.7 mph - N/A   Clear
2:51 AM 15.1 °F 2.5 °F -0.9 °F 49% 30.45 in 10.0 mi North 10.4 mph - N/A   Clear
3:51 AM 12.0 °F 4.1 °F -2.0 °F 53% 30.48 in 10.0 mi NNE 4.6 mph - N/A   Clear
4:51 AM 9.0 °F - -0.9 °F 64% 30.52 in 10.0 mi Calm Calm - N/A   Clear
5:51 AM 6.1 °F -0.9 °F -2.0 °F 69% 30.55 in 10.0 mi ESE 3.5 mph - N/A   Clear
6:51 AM 5.0 °F - -2.0 °F 73% 30.59 in 10.0 mi Calm Calm - N/A   Clear
7:51 AM 8.1 °F -3.2 °F 1.0 °F 73% 30.62 in 10.0 mi NNW 6.9 mph - N/A   Clear
8:51 AM 10.0 °F 0.4 °F 1.9 °F 70% 30.64 in 10.0 mi NW 5.8 mph - N/A   Clear
9:51 AM 14.0 °F 5.1 °F 3.0 °F 62% 30.65 in 10.0 mi North 5.8 mph - N/A   Clear
10:51 AM 16.0 °F 7.4 °F 3.0 °F 57% 30.65 in 10.0 mi Variable 5.8 mph - N/A   Clear
11:51 AM 18.0 °F 9.8 °F 3.0 °F 52% 30.63 in 10.0 mi WNW 5.8 mph - N/A   Clear
12:51 PM 19.9 °F - 1.0 °F 44% 30.62 in 10.0 mi Calm Calm - N/A   Clear
1:51 PM 21.0 °F - 1.0 °F 42% 30.60 in 10.0 mi North - - N/A   Clear
2:51 PM 21.0 °F 16.2 °F -0.0 °F 40% 30.59 in 10.0 mi NW 3.5 mph - N/A   Clear
3:51 PM 19.9 °F 11.1 °F -0.0 °F 42% 30.59 in 10.0 mi NNW 6.9 mph - N/A   Clear
4:51 PM 18.0 °F 12.7 °F -0.9 °F 44% 30.61 in 10.0 mi NW 3.5 mph - N/A   Clear
5:51 PM 12.9 °F - -0.0 °F 56% 30.62 in 10.0 mi Calm Calm - N/A   Clear
6:51 PM 12.0 °F - -0.0 °F 59% 30.64 in 10.0 mi Calm Calm - N/A   Clear
7:51 PM 9.0 °F 2.4 °F -0.0 °F 67% 30.64 in 10.0 mi SW 3.5 mph - N/A   Clear
8:51 PM 8.1 °F - -0.0 °F 70% 30.64 in 10.0 mi Calm Calm - N/A   Clear
9:51 PM 8.1 °F - -0.0 °F 70% 30.64 in 10.0 mi Calm Calm - N/A   Clear
10:51 PM 6.1 °F - -0.9 °F 73% 30.63 in 10.0 mi Calm Calm - N/A   Clear
11:51 PM 5.0 °F - -0.9 °F 76% 30.62 in 10.0 mi Calm Calm - N/A   Clear